Flag for Montenegro Weather past 2 weeks in Podgorica, Montenegro

Now
52 °F

Passing clouds.


Feels Like: 49 °F
Forecast: 45 / 62 °F
Wind: 8 mph from Northeast

Location: Podgorica Titograd

Current Time: Oct 26, 2014 at 5:12:28 AM

Latest Report: Oct 26, 2014 at 4:30 AM


Visibility: N/A

Pressure: 30.07 "Hg

Humidity: 50%

Dew point: 34 °F

Location of PodgoricaLocation

Historic Weather in Podgorica — Graph

°F

Podgorica temperature yesterday

Maximum temperature yesterday: 63 °F (at 1:30 PM)
Minimum temperature yesterday: 55 °F (at 3:30 AM)
Average temperature yesterday: 58 °F

Past Weeks' High & Low Weather Summary

 TemperatureHumidityPressure
High82 °F (Oct 18, 1:00 PM)100% (Oct 13, 3:30 AM)30.27 "Hg (Oct 13, 3:30 AM)
Low45 °F (Oct 24, 5:30 AM)27% (Oct 19, 5:00 PM)29.45 "Hg (Oct 22, 3:00 PM)
Average64 °F70%29.97 "Hg
* Reported Oct 11 5:00 AM — Oct 26 4:00 AM, Podgorica, Weather by CustomWeather, © 2014

Note: Actual official high and low records may vary slightly from our data, if they occured in-between our weather recording intervals... More about our weather records

Advertising

Podgorica weather history for previous 24 hours

 ConditionsComfort  
Time TempWeatherWind HumidityBarometerVisibility
4:00 AM
Oct 26
52 °FPassing clouds.6 mph50%30.09 "HgN/A
3:30 AM52 °FClear.2 mph50%30.09 "Hg10 mi
3:00 AM52 °FPassing clouds.7 mph50%30.07 "HgN/A
2:30 AM52 °FPassing clouds.8 mph50%30.07 "HgN/A
2:00 AM52 °FClear.6 mph50%30.07 "Hg10 mi
2:30 AM52 °FPassing clouds.10 mph54%30.07 "HgN/A
2:00 AM54 °FPassing clouds.8 mph47%30.07 "HgN/A
1:30 AM54 °FClear.10 mph47%30.07 "Hg10 mi
1:00 AM54 °FClear.10 mph47%30.07 "Hg10 mi
12:30 AM54 °FPassing clouds.13 mph47%30.07 "HgN/A
12:00 AM54 °FPassing clouds.16 mph47%30.04 "HgN/A
11:30 PM
Oct 25
55 °FPassing clouds.18 mph44%30.04 "HgN/A
11:00 PM55 °FPassing clouds.18 mph44%30.04 "HgN/A
10:30 PM55 °FPassing clouds.17 mph44%30.04 "HgN/A
10:00 PM55 °FPassing clouds.18 mph44%30.04 "HgN/A
9:30 PM55 °FPassing clouds.18 mph47%30.04 "HgN/A
9:00 PM55 °FPassing clouds.17 mph47%30.04 "HgN/A
8:30 PM55 °FPassing clouds.15 mph47%30.04 "HgN/A
8:00 PM57 °FPassing clouds.16 mph44%30.01 "HgN/A
7:30 PM57 °FPassing clouds.18 mph44%30.01 "HgN/A
7:00 PM57 °FPassing clouds.18 mph44%30.01 "HgN/A
6:30 PM57 °FScattered clouds.22 mph44%29.98 "HgN/A
6:00 PM59 °FScattered clouds.20 mph42%29.98 "HgN/A
5:30 PM59 °FScattered clouds.17 mph42%29.98 "HgN/A
5:00 PM59 °FScattered clouds.17 mph42%29.98 "HgN/A
4:30 PM59 °FBroken clouds.21 mph45%29.95 "HgN/A
4:00 PM61 °FBroken clouds.20 mph42%29.95 "HgN/A
3:30 PM61 °FBroken clouds.17 mph42%29.95 "HgN/A
3:00 PM61 °FBroken clouds.20 mph42%29.95 "HgN/A
2:30 PM63 °FBroken clouds.13 mph39%29.95 "HgN/A
2:00 PM63 °FBroken clouds.13 mph39%29.95 "HgN/A
1:30 PM63 °FBroken clouds.14 mph39%29.95 "HgN/A
1:00 PM61 °FBroken clouds.13 mph42%29.95 "HgN/A
12:30 PM61 °FPartly sunny.14 mph42%29.95 "HgN/A
12:00 PM61 °FPartly sunny.13 mph42%29.95 "HgN/A
11:30 AM61 °FPartly sunny.14 mph42%29.95 "HgN/A
11:00 AM61 °FPartly sunny.15 mph42%29.95 "HgN/A
10:30 AM59 °FPartly sunny.15 mph42%29.95 "HgN/A
10:00 AM59 °FPartly sunny.13 mph42%29.92 "HgN/A
9:30 AM57 °FPartly sunny.15 mph44%29.92 "HgN/A
9:00 AM57 °FPartly sunny.14 mph44%29.92 "HgN/A
8:30 AM57 °FPartly sunny.15 mph44%29.92 "HgN/A
8:00 AM57 °FPassing clouds.16 mph44%29.92 "HgN/A
7:30 AM57 °FPassing clouds.13 mph44%29.89 "HgN/A
7:00 AM57 °FPassing clouds.13 mph44%29.89 "HgN/A
6:30 AM57 °FPassing clouds.13 mph44%29.89 "HgN/A
6:00 AM55 °FPassing clouds.12 mph47%29.89 "HgN/A
5:30 AM55 °FPassing clouds.15 mph47%29.89 "HgN/A
5:00 AM55 °FPassing clouds.17 mph47%29.89 "HgN/A
Weather by CustomWeather, © 2014

See weather overviewHow to use our weather pages